Weather Service Report


074 
ASCA44 KEWX 050220
RWRMX 

LATIN AMERICA AND CARIBBEAN REGIONAL WEATHER ROUNDUP
NATIONAL WEATHER SERVICE AUSTIN/SAN ANTONIO TX
800 PM CST SUN DEC 04 2016

NOTE: "FAIR" INDICATED FEW OR NO CLOUDS BELOW 12,000 FEET WITH NO
SIGNIFICANT WEATHER AND/OR OBSTRUCTIONS TO VISIBILITY.

BAJA CALIFORNIA
  
CITY           SKY/WX    TMP DP  RH WIND       PRES   REMARKS
LORETO         CLEAR     70  48  46 N12       29.94R                  
LA PAZ         CLEAR     66  50  55 NE3       29.97R                  
MEXICALI       CLEAR     64  14  14 CALM      29.96R                  
S.J. DEL CABO  PTCLDY    64  46  52 SE6       29.97R                  
TIJUANA        PTCLDY    57  48  72 CALM      30.02S                  

NORTHWESTERN MEXICO
  
CITY           SKY/WX    TMP DP  RH WIND       PRES   REMARKS
CULIACAN       CLEAR     64  48  55 CALM      29.94R                  
DURANGO        MOCLDY    46  34  61 SW10      30.05R WCI  41          
GUAYMAS        CLEAR     70  46  43 CALM      29.88R                  
HERMOSILLO     CLEAR     64  39  39 W6        29.95R                  
CD. JUAREZ     PTCLDY    46  36  66 E9        30.00R WCI  42          
LOS MOCHIS     CLEAR     63  46  55 NW108     29.96R                  
OBREGON        CLEAR     59  48  67 S3        29.92R                  

NORTHEASTERN MEXICO
  
CITY           SKY/WX    TMP DP  RH WIND       PRES   REMARKS
CHIHUAHUA      DRIZZLE   41  41 100 N12       30.05R WCI  34          
MATAMOROS      CLOUDY    55  55 100 NW12      29.87R                  
MONCLOVA         N/A    N/A N/A N/A MISG        N/A                   
MONTERREY      CLOUDY    52  50  93 NW9       29.98R                  
NUEVO LAREDO   LGT RAIN  54  52  94 N9        29.97F FOG              
PIEDRAS NEGRAS   N/A    N/A N/A N/A MISG        N/A                   
REYNOSA          N/A    N/A N/A N/A MISG        N/A                   
SALTILLO       DRZL/FOG  46  46 100 CALM      30.06R VSB 1/2          
TORREON        LGT RAIN  57  48  72 NW3       29.97R                  
CD. VICTORIA   LGT RAIN  57  57 100 N8        29.92R                  

WESTERN MEXICO
  
CITY           SKY/WX    TMP DP  RH WIND       PRES   REMARKS
AGUASCALIENTES MOCLDY    61  45  55 S12       30.06R                  
COLIMA         CLOUDY    68  64  88 CALM      30.00R                  
DEL BAJIO      MOCLDY    59  50  72 S6        30.16R                  
GUADALAJARA    PTCLDY    63  41  45 SW5       30.02R                  
MANZANILLO     PTCLDY    75  70  83 NW6       29.84R                  
MAZATLAN       CLEAR     61  48  63 NE2       29.94R                  
P. VALLARTA    CLOUDY    70  66  88 N5        29.91R                  
URUAPAN        CLOUDY    61  59  94 S8        30.11R                  
ZACATECAS      CLEAR     52  37  58 SW15      30.03R                  

CENTRAL MEXICO
  
CITY           SKY/WX    TMP DP  RH WIND       PRES   REMARKS
CUERNAVACA       N/A    N/A N/A N/A MISG        N/A                   
MEXICO CITY    MOCLDY    64  43  45 S14       30.20R                  
MORELIA        MOCLDY    57  55  94 CALM      30.14R                  
POZA RICA      MOCLDY    77  75  94 NW5       29.82R FOG              
PUEBLA         MOCLDY    57  48  72 S15       30.20R                  
QUERETARO      MOCLDY    63  46  55 SW12      30.16R                  
S. LUIS POTOSI CLOUDY    64  39  39 S10       30.03R                  
TAMPICO        CLOUDY    70  66  88 N29       29.83R                  
TOLUCA         MOCLDY    54  43  66 W2        30.29                   

SOUTHERN MEXICO
  
CITY           SKY/WX    TMP DP  RH WIND       PRES   REMARKS
ACAPULCO       MOCLDY    81  73  78 W5        29.85R                  
B. DE HUATULCO MOCLDY    79  73  83 SW12      29.90R                  
OAXACA         CLEAR     70  52  52 SE7       30.09R                  
P. ESCONDIDO     N/A    N/A N/A N/A MISG        N/A                   
VERACRUZ       MOCLDY    79  75  89 N6        29.78R                  
ZIHUATANEJO    PTCLDY    79  73  83 CALM      29.86R                  

YUCATAN PENINSULA
  
CITY           SKY/WX    TMP DP  RH WIND       PRES   REMARKS
CAMPECHE       PTCLDY    82  75  78 E12G23    29.78R                  
CANCUN         PTCLDY    81  79  94 E10       29.91R                  
CHETUMAL       CLEAR     81  75  83 SE9       29.85R                  
CD. DEL CARMEN CLEAR     86  75  70 E7        29.79R HX  95           
COZUMEL        PTCLDY    79  77  94 SE7       29.88R                  
MERIDA         PTCLDY    81  68  65 E9        29.84R                  
MINATITLAN     CLEAR     81  68  65 S12       29.71R                  
TAPACHULA      PTCLDY    77  73  88 CALM      29.85R                  
TUX. GUTIERREZ CLEAR     75  61  60 S5        29.89R                  
VILLAHERMOSA   CLEAR     79  73  83 E5        29.79R                  

CENTRAL AMERICA
  
CITY           SKY/WX    TMP DP  RH WIND       PRES   REMARKS
BELIZE CITY    PTCLDY    79  77  94 E5        29.87R                  
MANAGUA        PTCLDY    79  73  83 SE5       29.86R                  

CARIBBEAN
  
CITY           SKY/WX    TMP DP  RH WIND       PRES   REMARKS
ARUBA          PTCLDY    82  75  78 E14       29.89R                  
CURACAO        PTCLDY    82  75  78 E14       29.92S                  
KINGSTON       PTCLDY    82  75  78 N6        29.94S                  
NASSAU         PTCLDY    75  68  78 E9        30.09R                  
SAN JUAN       PTCLDY    81  73  78 SE3       30.00R                  
SANTO DOMINGO  PTCLDY    75  73  94 NE5       29.97S                  
ST. CROIX      CLEAR     73  72  94 N5        30.00R                  
ST. KITTS      PTCLDY    79  72  78 N9        29.97S                  
ST. MAARTEN    PTCLDY    79  72  78 E5        29.97                   
ST. THOMAS     CLEAR     79  73  83 CALM      29.99R                  

$$

  

Return to Home page


Western Regional Climate Center, wrcc@dri.edu